When you browse on this site, cookies collect data to enhance your experience and personalize the content and advertising you see.
Visit our Privacy Policy to learn more. By continuing to use the site, you agree to this use of cookies and data.
  • In Deutschland
  • Länderverzeichnis
  • Für 7 Tage
  • Wassertemperatur
  • Wetterkarte
  • Widgets
  • user-avatar
    Anmelden

    Stündliche Wetter Julara

    Heute, 16 September, Montag

    Zeit Temperatur Niederschläge Wind Luftdruck Luftfeuchtigkeit
    00:00 +19°C° 0 mm 2 m/S 719 mmHg 32%
    01:00 +18°C° 0 mm 2 m/S 719 mmHg 30%
    02:00 +16°C° 0 mm 1 m/S 718 mmHg 29%
    03:00 +15°C° 0 mm 1 m/S 718 mmHg 35%
    04:00 +14°C° 0 mm 1 m/S 718 mmHg 37%
    05:00 +14°C° 0 mm 1 m/S 718 mmHg 39%
    06:00 +14°C° 0 mm 1 m/S 719 mmHg 41%
    07:00 +20°C° 0 mm 1 m/S 719 mmHg 31%
    08:00 +24°C° 0 mm 1 m/S 720 mmHg 20%
    09:00 +27°C° 0 mm 0 m/S 721 mmHg 9%
    10:00 +31°C° 0 mm 1 m/S 721 mmHg 9%
    11:00 +34°C° 0 mm 2 m/S 721 mmHg 8%
    12:00 +35°C° 0 mm 2 m/S 720 mmHg 7%
    13:00 +36°C° 0 mm 2 m/S 720 mmHg 7%
    14:00 +36°C° 0 mm 2 m/S 719 mmHg 6%
    15:00 +36°C° 0 mm 2 m/S 719 mmHg 6%
    16:00 +34°C° 0 mm 2 m/S 719 mmHg 8%
    17:00 +30°C° 0 mm 2 m/S 718 mmHg 10%
    18:00 +27°C° 0 mm 3 m/S 718 mmHg 12%
    19:00 +26°C° 0 mm 4 m/S 719 mmHg 19%
    20:00 +24°C° 0 mm 6 m/S 720 mmHg 26%
    21:00 +23°C° 0 mm 8 m/S 720 mmHg 32%
    22:00 +21°C° 0 mm 7 m/S 720 mmHg 37%
    23:00 +20°C° 0 mm 7 m/S 720 mmHg 41%

    Morgen, 17 September, Dienstag

    Zeit Temperatur Niederschläge Wind Luftdruck Luftfeuchtigkeit
    00:00 +19°C° 0 mm 6 m/S 720 mmHg 45%
    01:00 +17°C° 0 mm 6 m/S 720 mmHg 48%
    02:00 +16°C° 0 mm 5 m/S 720 mmHg 51%
    03:00 +15°C° 0 mm 5 m/S 720 mmHg 54%
    04:00 +14°C° 0 mm 5 m/S 720 mmHg 56%
    05:00 +14°C° 0 mm 5 m/S 720 mmHg 58%
    06:00 +13°C° 0 mm 5 m/S 720 mmHg 60%
    07:00 +15°C° 0 mm 6 m/S 721 mmHg 53%
    08:00 +17°C° 0 mm 7 m/S 721 mmHg 46%
    09:00 +20°C° 0 mm 8 m/S 722 mmHg 39%
    10:00 +23°C° 0 mm 8 m/S 721 mmHg 33%
    11:00 +27°C° 0 mm 8 m/S 721 mmHg 26%
    12:00 +30°C° 0 mm 7 m/S 721 mmHg 19%
    13:00 +33°C° 0 mm 6 m/S 720 mmHg 17%
    14:00 +34°C° 0 mm 5 m/S 719 mmHg 14%
    15:00 +35°C° 0 mm 4 m/S 719 mmHg 12%
    16:00 +33°C° 0 mm 4 m/S 719 mmHg 13%
    17:00 +29°C° 0 mm 3 m/S 719 mmHg 14%
    18:00 +27°C° 0 mm 2 m/S 719 mmHg 15%
    19:00 +26°C° 0 mm 3 m/S 719 mmHg 18%
    20:00 +25°C° 0 mm 4 m/S 720 mmHg 21%
    21:00 +23°C° 0 mm 5 m/S 720 mmHg 24%
    22:00 +22°C° 0 mm 5 m/S 720 mmHg 28%
    23:00 +21°C° 0 mm 6 m/S 720 mmHg 32%

    übermorgen, 18 September, Mittwoch

    Zeit Temperatur Niederschläge Wind Luftdruck Luftfeuchtigkeit
    00:00 +20°C° 0 mm 6 m/S 720 mmHg 36%
    01:00 +19°C° 0 mm 6 m/S 720 mmHg 39%
    02:00 +17°C° 0 mm 5 m/S 720 mmHg 41%
    03:00 +16°C° 0 mm 5 m/S 720 mmHg 44%
    04:00 +15°C° 0 mm 5 m/S 720 mmHg 47%
    05:00 +14°C° 0 mm 4 m/S 720 mmHg 49%
    06:00 +13°C° 0 mm 4 m/S 720 mmHg 52%
    07:00 +18°C° 0 mm 4 m/S 720 mmHg 44%
    08:00 +21°C° 0 mm 5 m/S 721 mmHg 36%
    09:00 +25°C° 0 mm 5 m/S 721 mmHg 28%
    10:00 +28°C° 0 mm 5 m/S 721 mmHg 22%
    11:00 +32°C° 0 mm 5 m/S 720 mmHg 16%
    12:00 +36°C° 0 mm 5 m/S 720 mmHg 10%
    13:00 +36°C° 0 mm 5 m/S 719 mmHg 9%
    14:00 +37°C° 0 mm 5 m/S 719 mmHg 8%
    15:00 +37°C° 0 mm 5 m/S 718 mmHg 7%
    16:00 +35°C° 0 mm 4 m/S 718 mmHg 8%
    17:00 +33°C° 0 mm 4 m/S 717 mmHg 9%
    18:00 +30°C° 0 mm 4 m/S 717 mmHg 10%
    19:00 +28°C° 0 mm 4 m/S 718 mmHg 11%
    20:00 +26°C° 0 mm 3 m/S 718 mmHg 12%
    21:00 +24°C° 0 mm 3 m/S 718 mmHg 13%
    22:00 +22°C° 0 mm 3 m/S 718 mmHg 14%
    23:00 +21°C° 0 mm 3 m/S 718 mmHg 15%

    19 September, Donnerstag

    Zeit Temperatur Niederschläge Wind Luftdruck Luftfeuchtigkeit
    00:00 +20°C° 0 mm 4 m/S 717 mmHg 16%
    01:00 +20°C° 0 mm 4 m/S 717 mmHg 19%
    02:00 +19°C° 0 mm 4 m/S 716 mmHg 21%
    03:00 +19°C° 0 mm 4 m/S 716 mmHg 23%
    04:00 +18°C° 0 mm 4 m/S 716 mmHg 23%
    05:00 +18°C° 0 mm 4 m/S 716 mmHg 24%
    06:00 +18°C° 0 mm 4 m/S 716 mmHg 25%
    07:00 +22°C° 0 mm 7 m/S 717 mmHg 20%
    08:00 +28°C° 0 mm 9 m/S 717 mmHg 16%
    09:00 +33°C° 0 mm 11 m/S 718 mmHg 11%
    10:00 +34°C° 0 mm 12 m/S 717 mmHg 10%
    11:00 +37°C° 0 mm 12 m/S 716 mmHg 9%
    12:00 +39°C° 0 mm 13 m/S 716 mmHg 8%
    13:00 +39°C° 0 mm 12 m/S 715 mmHg 8%
    14:00 +39°C° 0 mm 12 m/S 714 mmHg 9%
    15:00 +39°C° 0 mm 12 m/S 713 mmHg 9%
    16:00 +37°C° 0 mm 10 m/S 713 mmHg 10%
    17:00 +35°C° 0 mm 9 m/S 713 mmHg 11%
    18:00 +34°C° 0 mm 7 m/S 713 mmHg 12%
    19:00 +32°C° 0 mm 7 m/S 714 mmHg 13%
    20:00 +30°C° 0 mm 6 m/S 714 mmHg 14%
    21:00 +29°C° 0 mm 6 m/S 715 mmHg 15%
    22:00 +27°C° 0 mm 7 m/S 715 mmHg 19%
    23:00 +24°C° 0 mm 8 m/S 715 mmHg 22%

    20 September, Freitag

    Zeit Temperatur Niederschläge Wind Luftdruck Luftfeuchtigkeit
    00:00 +22°C° 0 mm 8 m/S 715 mmHg 26%
    01:00 +20°C° 0 mm 8 m/S 715 mmHg 36%
    02:00 +17°C° 0 mm 9 m/S 715 mmHg 47%
    03:00 +13°C° 0 mm 9 m/S 716 mmHg 57%
    04:00 +13°C° 0 mm 8 m/S 717 mmHg 58%
    05:00 +13°C° 0 mm 8 m/S 717 mmHg 60%
    06:00 +12°C° 0 mm 7 m/S 718 mmHg 61%
    07:00 +13°C° 0 mm 8 m/S 719 mmHg 57%
    08:00 +13°C° 0 mm 8 m/S 719 mmHg 53%
    09:00 +15°C° 0 mm 9 m/S 720 mmHg 49%
    10:00 +17°C° 0 mm 8 m/S 720 mmHg 41%
    11:00 +20°C° 0 mm 7 m/S 720 mmHg 33%
    12:00 +22°C° 0 mm 7 m/S 719 mmHg 25%
    13:00 +23°C° 0 mm 6 m/S 719 mmHg 22%
    14:00 +23°C° 0 mm 6 m/S 718 mmHg 18%
    15:00 +25°C° 0 mm 5 m/S 718 mmHg 15%
    16:00 +23°C° 0 mm 5 m/S 718 mmHg 15%
    17:00 +22°C° 0 mm 5 m/S 718 mmHg 16%
    18:00 +20°C° 0 mm 5 m/S 718 mmHg 17%
    19:00 +17°C° 0 mm 6 m/S 719 mmHg 18%
    20:00 +16°C° 0 mm 7 m/S 719 mmHg 20%
    21:00 +13°C° 0 mm 8 m/S 719 mmHg 21%
    22:00 +12°C° 0 mm 7 m/S 719 mmHg 23%
    23:00 +11°C° 0 mm 7 m/S 719 mmHg 25%

    21 September, Samstag

    Zeit Temperatur Niederschläge Wind Luftdruck Luftfeuchtigkeit
    00:00 +10°C° 0 mm 6 m/S 719 mmHg 27%
    01:00 +9°C° 0 mm 6 m/S 720 mmHg 30%
    02:00 +8°C° 0 mm 6 m/S 720 mmHg 32%
    03:00 +7°C° 0 mm 6 m/S 720 mmHg 35%
    04:00 +7°C° 0 mm 6 m/S 720 mmHg 39%
    05:00 +5°C° 0 mm 6 m/S 721 mmHg 42%
    06:00 +4°C° 0 mm 6 m/S 721 mmHg 45%
    07:00 +6°C° 0 mm 7 m/S 722 mmHg 41%
    08:00 +9°C° 0 mm 8 m/S 723 mmHg 37%
    09:00 +11°C° 0 mm 9 m/S 723 mmHg 33%
    10:00 +13°C° 0 mm 9 m/S 723 mmHg 29%
    11:00 +16°C° 0 mm 8 m/S 722 mmHg 25%
    12:00 +20°C° 0 mm 8 m/S 722 mmHg 21%
    13:00 +20°C° 0 mm 7 m/S 721 mmHg 21%
    14:00 +21°C° 0 mm 6 m/S 720 mmHg 20%
    15:00 +22°C° 0 mm 5 m/S 720 mmHg 19%
    16:00 +21°C° 0 mm 5 m/S 720 mmHg 20%
    17:00 +20°C° 0 mm 4 m/S 720 mmHg 22%
    18:00 +19°C° 0 mm 4 m/S 720 mmHg 24%
    19:00 +18°C° 0 mm 4 m/S 721 mmHg 26%
    20:00 +15°C° 0 mm 5 m/S 722 mmHg 28%
    21:00 +14°C° 0 mm 5 m/S 722 mmHg 30%
    22:00 +13°C° 0 mm 5 m/S 722 mmHg 32%
    23:00 +10°C° 0 mm 5 m/S 722 mmHg 34%
    Mehr zeigen